Location: Bouchavesnes-Bergen
(49.9859°N, 2.9203°E)
Time: 00:09:09
(UTC+00:00)

CZ-2C R/B - Pass Details

Date: 09 March 2021
Orbit: 667 x 785 km, 98.2° (Epoch: 13 April)

Event Time Altitude Azimuth Distance (km) Brightness Sun altitude
Rises 04:32:32 0° 9° (N) 3,129 6.0 -17.1°
Reaches altitude 10° 04:34:56 10° 2° (N) 2,187 5.0 -16.8°
Maximum altitude 04:39:22 40° 294° (WNW) 1,017 2.8 -16.1°
Enters shadow 04:41:27 26° 243° (WSW) 1,353 3.2 -15.7°
